Randolph AFB, TX

3:25 AM CDT on October 18, 2017 (GMT -0500)
Randolph Air Force Base

Weather History for KRND - December, 2012

Change the Weather History Date:

Wednesday, December 26, 2012

  Actual Average Record
Temperature  
Mean Temperature 39 °F -  
Max Temperature 50 °F 60 °F 83 °F (2016)
Min Temperature 28 °F 39 °F 21 °F (1998)
Degree Days  
Heating Degree Days 26    
Moisture  
Dew Point 18 °F    
Average Humidity 47    
Maximum Humidity 61    
Minimum Humidity 29    
Precipitation  
Precipitation 0.00 in - - ()
Sea Level Pressure  
Sea Level Pressure 30.18 in    
Wind  
Wind Speed 12 mph (NNE)    
Max Wind Speed 22 mph    
Max Gust Speed 29 mph    
Visibility 10 miles    
Events      
Averages and records for this station are not official NWS values.
T = Trace of Precipitation, MM = Missing Value Source: NWS Daily Summary

Daily Weather History Graph

Daily Weather History Graph

Search for Another Location

Airport or City:

Trip Planner

Search our weather history database for the weather conditions in past years. The results will help you decide how hot, cold, wet, or windy it might be!

Date:

Astronomy

Dec. 26, 2012 Rise Set
Actual Time 7:26 AM CST 5:41 PM CST
Civil Twilight 6:59 AM CST 6:08 PM CST
Nautical Twilight 6:30 AM CST 6:37 PM CST
Astronomical Twilight 6:01 AM CST 7:06 PM CST
Moon 4:34 PM CST (12/26) 5:52 AM CST (12/26)
Length of Visible Light 11h 08m
Length of Day
10h 15m
Waxing Gibbous, 97% of the Moon is Illuminated
Dec 26
Waxing Gibbous
Dec 28
Full
Jan 4
Last Quarter
Jan 11
New
Jan 18
First Quarter

Hourly Weather History & Observations

Time (CST) Temp. Windchill Dew Point Humidity Pressure Visibility Wind Dir Wind Speed Gust Speed Precip Events Conditions
12:55 AM 34.5 °F 24.1 °F 18.9 °F 53% 30.14 in 10.0 mi NNW 17.3 mph 27.6 mph N/A   Clear
1:55 AM 33.3 °F 22.1 °F 18.5 °F 55% 30.16 in 10.0 mi NNW 18.4 mph 24.2 mph N/A   Clear
2:55 AM 32.5 °F 20.8 °F 19.4 °F 58% 30.16 in 10.0 mi North 19.6 mph 26.5 mph N/A   Clear
3:55 AM 32.0 °F 21.6 °F 18.5 °F 58% 30.17 in 10.0 mi North 15.0 mph 28.8 mph N/A   Clear
4:55 AM 31.3 °F 20.7 °F 17.6 °F 57% 30.17 in 10.0 mi North 15.0 mph 25.3 mph N/A   Clear
5:55 AM 30.4 °F 20.5 °F 16.5 °F 56% 30.21 in 10.0 mi North 12.7 mph 21.9 mph N/A   Clear
6:55 AM 29.5 °F 16.2 °F 16.3 °F 58% 30.20 in 10.0 mi North 21.9 mph 27.6 mph N/A   Clear
7:55 AM 28.9 °F 21.1 °F 16.0 °F 58% 30.25 in 10.0 mi NNW 8.1 mph - N/A   Clear
8:55 AM 31.8 °F 23.3 °F 16.2 °F 52% 30.27 in 10.0 mi NNW 10.4 mph - N/A   Clear
9:55 AM 34.3 °F 30.2 °F 16.3 °F 48% 30.29 in 10.0 mi NW 4.6 mph - N/A   Clear
10:55 AM 37.8 °F 30.7 °F 16.7 °F 42% 30.27 in 10.0 mi NNW 10.4 mph - N/A   Clear
11:55 AM 41.4 °F 36.2 °F 17.4 °F 38% 30.25 in 10.0 mi North 8.1 mph - N/A   Clear
12:55 PM 45.0 °F 43.5 °F 17.8 °F 34% 30.21 in 10.0 mi Variable 3.5 mph - N/A   Clear
1:55 PM 47.7 °F - 17.8 °F 30% 30.17 in 10.0 mi NE 4.6 mph - N/A   Clear
2:55 PM 49.1 °F - 18.1 °F 29% 30.15 in 10.0 mi Calm Calm - N/A   Clear
3:55 PM 50.2 °F - 18.7 °F 29% 30.13 in 10.0 mi NE 4.6 mph - N/A   Clear
4:55 PM 49.5 °F - 19.4 °F 31% 30.12 in 10.0 mi Variable 3.5 mph - N/A   Clear
5:55 PM 43.0 °F 39.5 °F 19.8 °F 40% 30.12 in 10.0 mi East 5.8 mph - N/A   Clear
6:55 PM 40.6 °F 36.0 °F 18.0 °F 40% 30.13 in 10.0 mi ENE 6.9 mph - N/A   Clear
7:55 PM 36.9 °F 33.1 °F 18.1 °F 47% 30.15 in 10.0 mi ENE 4.6 mph - N/A   Clear
8:55 PM 35.6 °F 31.7 °F 18.5 °F 50% 30.16 in 10.0 mi NE 4.6 mph - N/A   Clear
9:55 PM 33.6 °F 27.5 °F 19.2 °F 56% 30.15 in 10.0 mi NE 6.9 mph - N/A   Clear
10:55 PM 32.5 °F 28.1 °F 19.0 °F 58% 30.15 in 10.0 mi NE 4.6 mph - N/A   Clear
11:55 PM 31.5 °F 28.1 °F 19.2 °F 61% 30.12 in 10.0 mi ENE 3.5 mph - N/A   Clear